Lid_Strength_Index
4 3 4 4 4 3 6 9 15 6 7 12 15 17 12 10 11 9 10 11 11 12 12 12 12 12 10 7 8 11 10 11 15 14 10 9 10 13 13 21 21 17 18 18
4 4 3 3 4 4 8 11 10 7 8 16 17 13 13 11 12 11 11 12 11 11 12 15 12 11 8 7 9 11 10 14 17 16 12 11 12 11 11 12 14 17 22 18
4 3 3 3 3 4 8 11 17 14 11 10 13 14 14 14 10 11 11 11 11 12 13 11 14 12 9 7 8 6 7 12 14 17 15 13 14 13 11 13 18 16 17 16
4 3 3 3 3 3 8 11 15 13 18 16 13 12 12 14 14 11 10 12 12 12 17 15 14 11 10 9 8 9 9 15 13 12 12 12 13 13 13 14 13 17 15 16
4 3 3 3 3 4 9 14 14 10 13 11 13 13 15 13 13 12 13 13 11 12 14 13 16 13 12 13 11 11 11 16 13 18 11 11 13 12 12 12 12 13 14 15
4 3 3 3 3 4 10 7 8 11 11 13 15 15 13 12 11 11 11 12 13 13 11 10 11 10 10 10 12 13 14 16 17 19 12 13 18 12 11 11 11 11 15 13
4 3 3 3 3 4 7 7 9 12 16 14 14 11 11 12 12 13 11 11 13 10 8 9 10 10 10 10 11 10 14 14 16 21 15 26 14 8 8 10 9 8 9 9
4 3 3 3 3 3 7 6 9 12 17 12 12 11 11 11 11 12 12 10 9 9 11 16 19 19 17 17 11 11 11 14 20 21 21 15 11 9 10 10 11 8 9 8
4 4 3 3 3 3 6 7 6 9 13 15 10 12 11 15 16 14 11 9 9 10 15 18 25 24 19 18 14 10 10 11 17 22 21 20 12 8 6 7 14 8 8 8
4 4 3 3 3 4 6 7 5 9 12 11 11 14 14 12 13 15 13 12 13 11 19 23 23 20 13 17 16 16 15 18 21 23 23 15 9 7 7 15 14 8 7 7
4 4 4 3 3 4 6 7 5 8 12 11 9 9 12 12 13 17 13 14 15 16 20 20 19 19 16 15 13 14 15 17 19 19 24 22 7 8 11 9 8 7 7 7
4 4 4 4 4 4 5 9 5 4 9 9 8 8 8 9 10 12 12 13 13 13 18 18 18 18 16 15 19 12 16 13 13 13 15 9 7 8 7 7 8 8 7 6
4 4 4 4 4 4 5 9 8 8 11 12 12 11 8 7 8 8 14 13 11 12 10 14 16 18 15 18 16 15 12 10 14 13 10 9 8 7 6 6 6 6 6 6
4 4 4 4 4 4 5 9 7 8 10 17 14 7 9 6 7 8 9 10 10 10 11 15 17 17 13 16 14 14 12 11 12 12 10 8 7 7 6 5 4 5 4 5
4 4 4 4 4 4 5 8 7 7 12 15 14 10 9 8 8 8 8 10 11 14 16 14 15 14 14 15 13 13 11 12 14 14 9 8 8 5 4 5 5 5 6 6
4 4 4 4 5 5 8 12 8 7 8 15 17 10 10 8 8 9 10 10 11 13 15 17 13 10 14 19 16 11 9 8 8 9 7 6 6 5 4 6 6 5 6 6
4 4 4 4 4 6 9 11 7 5 7 13 17 15 10 8 9 10 11 10 12 12 12 15 14 13 11 13 15 11 9 8 7 6 5 7 5 7 5 5 5 5 6 6
5 4 4 4 4 5 8 6 4 6 9 11 17 15 13 8 14 15 10 13 12 14 15 14 16 13 15 16 12 10 8 7 6 5 5 6 6 6 6 6 6 6 7 6
5 4 4 6 8 9 7 4 5 7 10 16 15 16 17 9 13 13 14 13 17 13 16 16 15 16 16 12 10 9 8 6 6 6 6 6 6 6 6 6 6 7 7 7
4 7 10 13 9 3 4 7 12 12 12 13 15 12 14 11 13 15 15 14 15 16 14 12 15 14 10 9 8 7 6 5 5 8 8 8 8 7 7 7 7 7 7 7
9 11 12 8 4 8 10 15 14 14 15 13 13 13 14 10 14 14 12 13 13 16 14 14 14 13 10 7 7 6 5 5 5 6 6 7 7 7 8 8 7 7 7 8
8 8 6 7 9 11 14 15 14 15 16 12 13 13 12 12 10 13 14 14 14 16 11 13 14 12 7 6 6 5 4 5 5 5 6 6 6 7 7 7 7 7 8 8
6 9 11 11 12 16 17 19 15 15 12 11 11 13 13 11 10 13 14 15 15 11 17 15 13 8 6 6 5 4 5 5 6 6 6 6 6 7 6 7 7 7 8 9
10 12 16 14 16 15 15 13 13 10 10 10 10 12 12 12 14 13 15 13 12 17 17 14 12 7 6 5 5 5 5 5 6 6 7 9 9 10 7 7 7 7 8 8
12 12 16 15 12 12 11 9 9 8 7 8 10 11 11 13 14 12 13 14 16 14 16 10 8 6 6 6 5 5 6 8 8 7 8 9 8 8 7 7 7 7 7 8
10 11 13 12 12 13 12 10 10 7 7 7 7 10 12 12 12 13 14 14 14 12 9 9 8 8 8 7 6 6 6 6 7 7 7 7 9 7 7 7 7 7 7 8
12 13 10 11 11 12 10 10 10 7 8 10 9 11 12 11 12 13 12 13 11 9 9 8 8 8 8 7 7 7 6 6 7 7 7 7 7 6 7 8 7 7 7 7